sat.trackr.live / text

‹ back to catalog

HULIANWANG DIGUI-129

NORAD 67237 · 2025-311B

PAYLOAD ACTIVE UNKNOWN

§ Identity

Operator
Country
PRC
Launch date
2025-12-25
Launch site
WSC
Launch vehicle
Mass (kg)
RCS (m²)

External: N2YO · Heavens-Above · Gunter

§ Orbital elements

Epoch: 2026-05-25T04:33:52.004736Z

Period
108.33 min
Inclination
50.0058°
Eccentricity
0.0000935
Mean motion
13.29323980 rev/d
Perigee alt
1,148.6 km
Apogee alt
1,150.0 km
Semi-major
7,527.5 km
B*
6.7182e-5
RAAN
198.0795°
Arg perigee
246.4600°
Mean anomaly
113.6174°
Rev number
2,028

§ Raw data

HULIANWANG DIGUI-1291 67237U 25311B   26145.19018524 -.00000093  00000+0  67182-4 0  99952 67237  50.0058 198.0795 0000935 246.4600 113.6174 13.29323980 20288

JSON: /api/v1/satellites/67237 · /tle

For live sub-satellite position, see the globe view (requires WebGL).

§ Visibility from observer

Set your observer location to see the next 7 days of passes ≥ 10°. The values pass through the URL so the page stays shareable.

No JS? Fill the form by hand. The geolocation button needs JavaScript.